Location: Mannheim
(49.4880°N, 8.4650°E)
Time: 03:21:30
(UTC+02:00)

ISS - Pass Details

Date: 21 March 2023
Orbit: 413 x 421 km, 51.6° (Epoch: 29 March)

Event Time Altitude Azimuth Distance (km) Brightness Sun altitude
Rises 19:25:18 0° 246° (WSW) 2,353 1.1 -8.1°
Reaches altitude 10° 19:27:24 10° 245° (WSW) 1,490 -0.1 -8.5°
Maximum altitude 19:30:44 78° 159° (SSE) 429 -3.8 -9.0°
Enters shadow 19:33:57 11° 73° (ENE) 1,435 -1.6 -9.5°
